Washington, NC

10:22 PM EST on January 20, 2018 (GMT -0500)
Warren

Weather History for KOCW - April, 2014

Change the Weather History Date:

Friday, April 11, 2014

  Actual Average (KPGV) Record (KPGV)
Temperature  
Mean Temperature 70 °F -  
Max Temperature 80 °F 71 °F 88 °F (1977)
Min Temperature 60 °F 44 °F 32 °F (1960)
Cooling Degree Days 5    
Growing Degree Days 20 (Base 50)    
Moisture  
Dew Point 44 °F    
Average Humidity 39    
Maximum Humidity 70    
Minimum Humidity 17    
Precipitation  
Precipitation 0.00 in - - ()
Sea Level Pressure  
Sea Level Pressure 30.16 in    
Wind  
Wind Speed 13 mph (SW)    
Max Wind Speed 21 mph    
Max Gust Speed 28 mph    
Visibility 10 miles    
Events      
Averages and records for this station are not official NWS values.
T = Trace of Precipitation, MM = Missing Value Source: NWS Daily Summary

Daily Weather History Graph

Daily Weather History Graph

Search for Another Location

Airport or City:

Trip Planner

Search our weather history database for the weather conditions in past years. The results will help you decide how hot, cold, wet, or windy it might be!

Date:

Astronomy

Apr. 11, 2014 Rise Set
Actual Time 6:40 AM EDT 7:38 PM EDT
Civil Twilight 6:14 AM EDT 8:04 PM EDT
Nautical Twilight 5:44 AM EDT 8:35 PM EDT
Astronomical Twilight 5:12 AM EDT 9:07 PM EDT
Moon 4:23 PM EDT (4/11) 4:27 AM EDT (4/11)
Length of Visible Light 13h 49m
Length of Day
12h 57m
Waxing Gibbous, 87% of the Moon is Illuminated
Apr 11
Waxing Gibbous
Apr 15
Full
Apr 22
Last Quarter
Apr 29
New
May 6
First Quarter

Hourly Weather History & Observations

Time (EDT) Temp. Dew Point Humidity Pressure Visibility Wind Dir Wind Speed Gust Speed Precip Events Conditions
8:15 AM 60.4 °F 50.5 °F 70% 30.25 in 10.0 mi SW 10.4 mph - N/A   Unknown
8:55 AM 63.0 °F 51.3 °F 66% 30.25 in 10.0 mi WSW 9.2 mph - N/A   Clear
9:15 AM 63.9 °F 50.5 °F 62% 30.25 in 10.0 mi WSW 13.8 mph - N/A   Clear
9:35 AM 65.5 °F 50.5 °F 58% 30.25 in 10.0 mi SW 13.8 mph 18.4 mph N/A   Clear
9:55 AM 67.8 °F 50.7 °F 54% 30.25 in 10.0 mi WSW 13.8 mph - N/A   Clear
10:15 AM 68.4 °F 49.3 °F 50% 30.25 in 10.0 mi SW 15.0 mph 18.4 mph N/A   Clear
10:35 AM 73.0 °F 51.1 °F 46% 30.25 in 10.0 mi WSW 12.7 mph - N/A   Clear
10:55 AM 73.0 °F 49.5 °F 43% 30.25 in 10.0 mi SW 11.5 mph 17.3 mph N/A   Clear
11:15 AM 73.0 °F 46.2 °F 38% 30.24 in 10.0 mi SW 12.7 mph 18.4 mph N/A   Unknown
11:35 AM 74.5 °F 43.2 °F 33% 30.23 in 10.0 mi WSW 17.3 mph 23.0 mph N/A   Clear
11:55 AM 78.1 °F 43.3 °F 29% 30.22 in 10.0 mi SW 15.0 mph 20.7 mph N/A   Clear
12:15 PM 78.1 °F 39.4 °F 25% 30.21 in 10.0 mi SW 18.4 mph 24.2 mph N/A   Clear
12:35 PM 78.1 °F 37.6 °F 23% 30.20 in 10.0 mi SW 20.7 mph 27.6 mph N/A   Clear
12:55 PM 78.1 °F 37.6 °F 23% 30.19 in 10.0 mi WSW 17.3 mph 23.0 mph N/A   Clear
1:15 PM 78.1 °F 34.7 °F 21% 30.18 in 10.0 mi SW 16.1 mph 25.3 mph N/A   Clear
1:40 PM - - N/A% 30.16 in - WSW 17.3 mph - N/A   Unknown
1:55 PM 78.4 °F 33.8 °F 20% 30.16 in 10.0 mi SSW 13.8 mph 21.9 mph N/A   Unknown
2:15 PM 78.8 °F 33.1 °F 19% 30.15 in 10.0 mi WSW 19.6 mph 25.3 mph N/A   Clear
2:35 PM 80.2 °F 34.0 °F 19% 30.14 in 10.0 mi WSW 16.1 mph 24.2 mph N/A   Clear
2:55 PM 79.0 °F 32.5 °F 19% 30.13 in 10.0 mi SW 17.3 mph 24.2 mph N/A   Clear
3:15 PM 80.8 °F 32.9 °F 18% 30.11 in 10.0 mi SW 15.0 mph 21.9 mph N/A   Clear
3:55 PM 80.8 °F 32.2 °F 17% 30.10 in 10.0 mi SW 18.4 mph 26.5 mph N/A   Clear
4:15 PM 79.3 °F 31.5 °F 18% 30.09 in 10.0 mi SW 20.7 mph 27.6 mph N/A   Clear
4:35 PM 80.6 °F 31.8 °F 17% 30.08 in 10.0 mi SW 15.0 mph 20.7 mph N/A   Clear
4:55 PM 78.1 °F 30.6 °F 18% 30.08 in 10.0 mi SSW 15.0 mph 20.7 mph N/A   Clear
5:15 PM 78.1 °F 32.0 °F 19% 30.08 in 10.0 mi SSW 11.5 mph 20.7 mph N/A   Clear
5:35 PM 78.1 °F 33.4 °F 20% 30.08 in 10.0 mi SW 15.0 mph 23.0 mph N/A   Clear
5:55 PM 78.1 °F 34.5 °F 21% 30.08 in 10.0 mi SSW 15.0 mph 21.9 mph N/A   Clear
6:15 PM 78.1 °F 36.1 °F 22% 30.08 in 10.0 mi SW 15.0 mph 20.7 mph N/A   Clear
6:35 PM 78.1 °F 38.8 °F 24% 30.08 in 10.0 mi SW 13.8 mph 19.6 mph N/A   Clear
6:55 PM 78.1 °F 39.6 °F 25% 30.08 in 10.0 mi SW 11.5 mph 17.3 mph N/A   Clear
7:15 PM 77.4 °F 43.0 °F 29% 30.09 in 10.0 mi SSW 12.7 mph 21.9 mph N/A   Clear
7:35 PM 73.0 °F 49.8 °F 44% 30.09 in 10.0 mi South 10.4 mph 18.4 mph N/A   Clear
7:55 PM 73.0 °F 50.9 °F 46% 30.11 in 10.0 mi SSW 9.2 mph 17.3 mph N/A   Clear
8:15 PM 73.0 °F 50.9 °F 46% 30.11 in 10.0 mi SSW 6.9 mph 17.3 mph N/A   Clear
8:35 PM 73.0 °F 51.6 °F 47% 30.12 in 10.0 mi SSW 9.2 mph 16.1 mph N/A   Clear
8:55 PM 70.7 °F 50.9 °F 49% 30.13 in 10.0 mi SSW 12.7 mph 17.3 mph N/A   Clear
9:15 PM 70.7 °F 51.6 °F 51% 30.14 in 10.0 mi SSW 11.5 mph 17.3 mph N/A   Clear
9:35 PM 68.0 °F 50.9 °F 54% 30.14 in 10.0 mi SSW 9.2 mph - N/A   Clear
9:55 PM 68.0 °F 52.7 °F 58% 30.15 in 10.0 mi SSW 8.1 mph - N/A   Clear
10:15 PM 66.7 °F 52.5 °F 60% 30.15 in 10.0 mi SSW 9.2 mph - N/A   Clear
10:35 PM 66.2 °F 52.9 °F 62% 30.16 in 10.0 mi SSW 8.1 mph - N/A   Clear
10:55 PM 65.8 °F 53.2 °F 64% 30.16 in 10.0 mi SSW 6.9 mph - N/A   Clear
11:15 PM 65.7 °F 53.6 °F 65% 30.17 in 10.0 mi SSW 6.9 mph - N/A   Clear
11:35 PM 65.5 °F 54.1 °F 67% 30.17 in 10.0 mi SSW 8.1 mph - N/A   Clear
11:55 PM 65.5 °F 54.5 °F 68% 30.17 in 10.0 mi SSW 10.4 mph - N/A   Clear